| time (UTC) | temp F | wind direction | speed MPH | gust MPH | rain 1hr in | rain 24hr in | rain mn in | humidity % | barometer mb |
| 20260503171545 | 59 | 315 | 2.0 | 8.0 | 0.00 | 0.00 | 0.00 | 46 | 1012.9 |
| 20260503171017 | 58 | 259 | 1.0 | 8.0 | 0.00 | 0.00 | 0.00 | 44 | 1012.9 |
| 20260503170558 | 58 | 229 | 2.0 | 11.0 | 0.00 | 0.00 | 0.00 | 46 | 1012.9 |
| 20260503150516 | 55 | 290 | 1.0 | 6.0 | 0.00 | 0.00 | 0.00 | 32 | 1012.3 |
| 20260503131049 | 53 | 213 | 1.0 | 6.0 | 0.00 | 0.00 | 0.00 | 27 | 1011.0 |
| 20260503130527 | 53 | 265 | 0.0 | 5.0 | 0.00 | 0.00 | 0.00 | 26 | 1010.8 |
| 20260503130108 | 53 | 217 | 1.0 | 5.0 | 0.00 | 0.00 | 0.00 | 26 | 1010.8 |
| 20260503110546 | 53 | 288 | 0.0 | 4.0 | 0.00 | 0.00 | 0.00 | 21 | 1010.9 |
| 20260503081557 | 54 | 295 | 0.0 | 2.0 | 0.00 | 0.00 | 0.00 | 22 | 1011.6 |
| 20260503081036 | 54 | 275 | 0.0 | 2.0 | 0.00 | 0.00 | 0.00 | 22 | 1011.6 |
| 20260503080525 | 54 | 228 | 0.0 | 1.0 | 0.00 | 0.00 | 0.00 | 22 | 1011.8 |
| 20260503072048 | 54 | 254 | 0.0 | 1.0 | 0.00 | 0.00 | 0.00 | 21 | 1011.7 |
| 20260503071527 | 54 | 254 | 0.0 | 1.0 | 0.00 | 0.00 | 0.00 | 21 | 1011.7 |
| 20260503071008 | 54 | 253 | 0.0 | 1.0 | 0.00 | 0.00 | 0.00 | 22 | 1011.6 |
| 20260503070554 | 54 | 253 | 0.0 | 2.0 | 0.00 | 0.00 | 0.00 | 22 | 1011.7 |
| 20260503055002 | 54 | 238 | 0.0 | 1.0 | 0.00 | 0.00 | 0.00 | 25 | 1012.1 |
| 20260503054556 | 54 | 236 | 0.0 | 1.0 | 0.00 | 0.00 | 0.00 | 26 | 1012.2 |
| 20260503054024 | 54 | 345 | 0.0 | 2.0 | 0.00 | 0.00 | 0.00 | 25 | 1012.2 |
| 20260503053503 | 54 | 326 | 0.0 | 5.0 | 0.00 | 0.00 | 0.00 | 25 | 1012.1 |
| 20260503053046 | 54 | 337 | 0.0 | 5.0 | 0.00 | 0.00 | 0.00 | 25 | 1012.1 |
| 20260503052525 | 54 | 278 | 0.0 | 3.0 | 0.00 | 0.00 | 0.00 | 25 | 1012.2 |
| 20260503052007 | 54 | 246 | 0.0 | 2.0 | 0.00 | 0.00 | 0.00 | 25 | 1012.2 |
| 20260503051547 | 55 | 315 | 0.0 | 2.0 | 0.00 | 0.00 | 0.00 | 25 | 1012.1 |
| 20260503051023 | 55 | 320 | 0.0 | 3.0 | 0.00 | 0.00 | 0.00 | 24 | 1012.1 |
| 20260503050504 | 55 | 259 | 0.0 | 2.0 | 0.00 | 0.00 | 0.00 | 24 | 1012.2 |
| 20260503050046 | 55 | 255 | 0.0 | 4.0 | 0.00 | 0.00 | 0.00 | 26 | 1012.1 |
| 20260503045526 | 55 | 321 | 0.0 | 4.0 | 0.00 | 0.00 | 0.00 | 26 | 1012.1 |
| 20260503045007 | 55 | 332 | 0.0 | 3.0 | 0.00 | 0.00 | 0.00 | 26 | 1012.1 |
| 20260503044548 | 55 | 328 | 0.0 | 2.0 | 0.00 | 0.00 | 0.00 | 26 | 1012.1 |
| 20260503044027 | 55 | 314 | 0.0 | 2.0 | 0.00 | 0.00 | 0.00 | 27 | 1012.1 |
| 20260503043506 | 55 | 338 | 0.0 | 5.0 | 0.00 | 0.00 | 0.00 | 27 | 1012.0 |
| 20260503043050 | 55 | 340 | 0.0 | 5.0 | 0.00 | 0.00 | 0.00 | 28 | 1012.0 |
| 20260503042529 | 55 | 305 | 0.0 | 3.0 | 0.00 | 0.00 | 0.00 | 28 | 1012.0 |
| 20260503042008 | 55 | 318 | 0.0 | 3.0 | 0.00 | 0.00 | 0.00 | 28 | 1011.9 |
| 20260503041551 | 55 | 211 | 0.0 | 4.0 | 0.00 | 0.00 | 0.00 | 28 | 1011.9 |
| 20260503041033 | 55 | 350 | 0.0 | 4.0 | 0.00 | 0.00 | 0.00 | 28 | 1011.9 |
| 20260503040510 | 55 | 339 | 0.0 | 4.0 | 0.00 | 0.00 | 0.00 | 28 | 1011.9 |
| 20260503040104 | 55 | 69 | 1.0 | 4.0 | 0.00 | 0.00 | 0.00 | 29 | 1011.9 |
| 20260503035532 | 55 | 257 | 0.0 | 4.0 | 0.00 | 0.00 | 0.00 | 29 | 1011.8 |
| 20260503035011 | 55 | 15 | 1.0 | 4.0 | 0.00 | 0.00 | 0.00 | 30 | 1011.8 |
| 20260503034555 | 55 | 252 | 0.0 | 2.0 | 0.00 | 0.00 | 0.00 | 29 | 1011.7 |
| 20260503034036 | 55 | 337 | 0.0 | 2.0 | 0.00 | 0.00 | 0.00 | 29 | 1011.7 |
| 20260503033513 | 55 | 311 | 0.0 | 2.0 | 0.00 | 0.00 | 0.00 | 30 | 1011.7 |
| 20260503033056 | 55 | 311 | 0.0 | 2.0 | 0.00 | 0.00 | 0.00 | 30 | 1011.6 |
| 20260503032535 | 56 | 359 | 0.0 | 2.0 | 0.00 | 0.00 | 0.00 | 32 | 1011.5 |
| 20260503032015 | 56 | 354 | 0.0 | 2.0 | 0.00 | 0.00 | 0.00 | 32 | 1011.3 |
| 20260503031606 | 56 | 321 | 0.0 | 2.0 | 0.00 | 0.00 | 0.00 | 33 | 1011.3 |
| 20260503031037 | 56 | 333 | 0.0 | 3.0 | 0.00 | 0.00 | 0.00 | 33 | 1011.2 |
| 20260503030516 | 56 | 354 | 0.0 | 3.0 | 0.00 | 0.00 | 0.00 | 34 | 1011.2 |
| 20260503030059 | 56 | 6 | 0.0 | 4.0 | 0.00 | 0.00 | 0.00 | 35 | 1011.1 |
| 20260503025538 | 56 | 335 | 0.0 | 5.0 | 0.00 | 0.00 | 0.00 | 35 | 1011.1 |
| 20260503025018 | 56 | 261 | 0.0 | 3.0 | 0.00 | 0.00 | 0.00 | 35 | 1011.1 |
| 20260503024603 | 56 | 286 | 0.0 | 3.0 | 0.00 | 0.00 | 0.00 | 33 | 1011.2 |
| 20260503024041 | 56 | 307 | 0.0 | 6.0 | 0.00 | 0.00 | 0.00 | 31 | 1011.1 |
| 20260503023520 | 56 | 199 | 0.0 | 7.0 | 0.00 | 0.00 | 0.00 | 31 | 1011.1 |
| 20260503023102 | 56 | 280 | 1.0 | 7.0 | 0.00 | 0.00 | 0.00 | 33 | 1011.2 |
| 20260503022541 | 56 | 240 | 1.0 | 7.0 | 0.00 | 0.00 | 0.00 | 34 | 1011.1 |
| 20260503022020 | 56 | 153 | 2.0 | 7.0 | 0.00 | 0.00 | 0.00 | 35 | 1011.1 |
| 20260503021604 | 57 | 223 | 0.0 | 7.0 | 0.00 | 0.00 | 0.00 | 35 | 1011.1 |
| 20260503021042 | 57 | 175 | 1.0 | 8.0 | 0.00 | 0.00 | 0.00 | 37 | 1011.1 |
| 20260503020522 | 57 | 225 | 2.0 | 8.0 | 0.00 | 0.00 | 0.00 | 39 | 1011.2 |
| 20260503020001 | 57 | 244 | 1.0 | 6.0 | 0.00 | 0.00 | 0.00 | 40 | 1011.1 |
| 20260503015546 | 57 | 241 | 3.0 | 6.0 | 0.00 | 0.00 | 0.00 | 41 | 1011.1 |
| 20260503015025 | 57 | 245 | 3.0 | 8.0 | 0.00 | 0.00 | 0.00 | 43 | 1011.2 |
| 20260503014503 | 57 | 195 | 1.0 | 9.0 | 0.00 | 0.00 | 0.00 | 43 | 1011.2 |
| 20260503014047 | 57 | 184 | 2.0 | 9.0 | 0.00 | 0.00 | 0.00 | 44 | 1011.2 |
| 20260503013525 | 57 | 198 | 3.0 | 9.0 | 0.00 | 0.00 | 0.00 | 44 | 1011.2 |
| 20260503013005 | 58 | 239 | 1.0 | 7.0 | 0.00 | 0.00 | 0.00 | 46 | 1011.4 |
| 20260503012548 | 58 | 203 | 2.0 | 7.0 | 0.00 | 0.00 | 0.00 | 47 | 1011.3 |
| 20260503012031 | 58 | 234 | 2.0 | 9.0 | 0.00 | 0.00 | 0.00 | 47 | 1011.3 |
| 20260503011506 | 58 | 212 | 4.0 | 9.0 | 0.00 | 0.00 | 0.00 | 49 | 1011.4 |
| 20260503011049 | 58 | 233 | 0.0 | 8.0 | 0.00 | 0.00 | 0.00 | 47 | 1011.3 |
| 20260503010528 | 58 | 178 | 2.0 | 8.0 | 0.00 | 0.00 | 0.00 | 48 | 1011.3 |
| 20260503010007 | 58 | 228 | 2.0 | 10.0 | 0.00 | 0.00 | 0.00 | 50 | 1011.3 |
| 20260503005553 | 59 | 224 | 2.0 | 10.0 | 0.00 | 0.00 | 0.00 | 51 | 1011.4 |
| 20260503005030 | 59 | 238 | 1.0 | 7.0 | 0.00 | 0.00 | 0.00 | 51 | 1011.3 |
| 20260503004510 | 59 | 242 | 2.0 | 7.0 | 0.00 | 0.00 | 0.00 | 52 | 1011.4 |
| 20260503004057 | 59 | 270 | 2.0 | 9.0 | 0.00 | 0.00 | 0.00 | 50 | 1011.4 |
| 20260503003531 | 59 | 169 | 4.0 | 9.0 | 0.00 | 0.00 | 0.00 | 51 | 1011.4 |
| 20260503003011 | 60 | 229 | 3.0 | 8.0 | 0.00 | 0.00 | 0.00 | 52 | 1011.4 |
| 20260503002555 | 60 | 157 | 2.0 | 8.0 | 0.00 | 0.00 | 0.00 | 50 | 1011.4 |
| 20260503002035 | 60 | 248 | 2.0 | 8.0 | 0.00 | 0.00 | 0.00 | 50 | 1011.4 |
| 20260503001513 | 60 | 207 | 2.0 | 7.0 | 0.00 | 0.00 | 0.00 | 50 | 1011.4 |
| 20260503001055 | 60 | 219 | 3.0 | 8.0 | 0.00 | 0.00 | 0.00 | 50 | 1011.4 |
| 20260503000535 | 60 | 228 | 2.0 | 9.0 | 0.00 | 0.00 | 0.00 | 50 | 1011.5 |
| 20260503000015 | 60 | 174 | 2.0 | 10.0 | 0.00 | 0.00 | 0.00 | 48 | 1011.5 |
| 20260502235557 | 59 | 167 | 3.0 | 11.0 | 0.00 | 0.00 | 0.00 | 47 | 1011.6 |
| 20260502235036 | 59 | 227 | 7.0 | 11.0 | 0.00 | 0.00 | 0.00 | 47 | 1011.6 |
| 20260502234526 | 59 | 150 | 2.0 | 14.0 | 0.00 | 0.00 | 0.00 | 45 | 1011.7 |
| 20260502234100 | 59 | 215 | 7.0 | 14.0 | 0.00 | 0.00 | 0.00 | 48 | 1011.7 |
| 20260502233539 | 59 | 149 | 6.0 | 15.0 | 0.00 | 0.00 | 0.00 | 47 | 1011.7 |
| 20260502233018 | 59 | 157 | 7.0 | 15.0 | 0.00 | 0.00 | 0.00 | 47 | 1011.8 |
| 20260502232606 | 59 | 155 | 8.0 | 15.0 | 0.00 | 0.00 | 0.00 | 48 | 1011.8 |
| 20260502232042 | 59 | 204 | 8.0 | 15.0 | 0.00 | 0.00 | 0.00 | 49 | 1011.9 |
| 20260502231520 | 60 | 205 | 8.0 | 17.0 | 0.00 | 0.00 | 0.00 | 51 | 1012.0 |
| 20260502231106 | 60 | 177 | 4.0 | 17.0 | 0.00 | 0.00 | 0.00 | 50 | 1012.0 |
| 20260502230542 | 61 | 172 | 6.0 | 11.0 | 0.00 | 0.00 | 0.00 | 49 | 1012.1 |
| 20260502230029 | 60 | 192 | 5.0 | 14.0 | 0.00 | 0.00 | 0.00 | 51 | 1012.2 |
| 20260502225502 | 60 | 228 | 3.0 | 12.0 | 0.00 | 0.00 | 0.00 | 49 | 1012.3 |
| 20260502225043 | 60 | 150 | 4.0 | 15.0 | 0.00 | 0.00 | 0.00 | 50 | 1012.3 |
| 20260502224523 | 60 | 170 | 7.0 | 18.0 | 0.00 | 0.00 | 0.00 | 49 | 1012.3 |
| 20260502224002 | 59 | 158 | 5.0 | 18.0 | 0.00 | 0.00 | 0.00 | 49 | 1012.4 |
| 20260502223545 | 59 | 200 | 9.0 | 16.0 | 0.00 | 0.00 | 0.00 | 48 | 1012.5 |
| 20260502223025 | 59 | 157 | 8.0 | 17.0 | 0.00 | 0.00 | 0.00 | 49 | 1012.5 |
| 20260502222503 | 59 | 240 | 3.0 | 14.0 | 0.00 | 0.00 | 0.00 | 48 | 1012.6 |
| 20260502222048 | 59 | 140 | 8.0 | 15.0 | 0.00 | 0.00 | 0.00 | 47 | 1012.7 |
| 20260502221526 | 58 | 240 | 8.0 | 15.0 | 0.00 | 0.00 | 0.00 | 47 | 1012.8 |
| 20260502221005 | 59 | 173 | 9.0 | 15.0 | 0.00 | 0.00 | 0.00 | 47 | 1012.8 |
| 20260502220549 | 59 | 144 | 5.0 | 16.0 | 0.00 | 0.00 | 0.00 | 48 | 1012.9 |
| 20260502220029 | 59 | 184 | 9.0 | 16.0 | 0.00 | 0.00 | 0.00 | 44 | 1012.9 |
| 20260502215507 | 59 | 198 | 4.0 | 14.0 | 0.00 | 0.00 | 0.00 | 49 | 1013.0 |
| 20260502215053 | 59 | 243 | 9.0 | 14.0 | 0.00 | 0.00 | 0.00 | 50 | 1012.9 |
| 20260502214529 | 60 | 191 | 5.0 | 12.0 | 0.00 | 0.00 | 0.00 | 51 | 1013.0 |
| 20260502214008 | 60 | 155 | 4.0 | 16.0 | 0.00 | 0.00 | 0.00 | 51 | 1013.0 |
| 20260502213548 | 59 | 228 | 5.0 | 17.0 | 0.00 | 0.00 | 0.00 | 51 | 1012.9 |
| 20260502213027 | 59 | 208 | 8.0 | 17.0 | 0.00 | 0.00 | 0.00 | 48 | 1013.0 |
| 20260502212509 | 59 | 176 | 8.0 | 18.0 | 0.00 | 0.00 | 0.00 | 48 | 1013.1 |
| 20260502212049 | 59 | 139 | 7.0 | 15.0 | 0.00 | 0.00 | 0.00 | 48 | 1013.1 |
| 20260502211529 | 59 | 200 | 4.0 | 11.0 | 0.00 | 0.00 | 0.00 | 47 | 1013.1 |
| 20260502211009 | 59 | 212 | 5.0 | 13.0 | 0.00 | 0.00 | 0.00 | 46 | 1013.2 |
| 20260502210551 | 59 | 207 | 4.0 | 11.0 | 0.00 | 0.00 | 0.00 | 46 | 1013.3 |
| 20260502210030 | 59 | 250 | 3.0 | 10.0 | 0.00 | 0.00 | 0.00 | 45 | 1013.4 |
| 20260502205510 | 59 | 203 | 5.0 | 10.0 | 0.00 | 0.00 | 0.00 | 43 | 1013.4 |
| 20260502205052 | 59 | 157 | 1.0 | 7.0 | 0.00 | 0.00 | 0.00 | 45 | 1013.4 |
| 20260502204533 | 59 | 266 | 2.0 | 13.0 | 0.00 | 0.00 | 0.00 | 42 | 1013.5 |
| 20260502204013 | 59 | 323 | 0.0 | 16.0 | 0.00 | 0.00 | 0.00 | 41 | 1013.5 |
| 20260502203604 | 58 | 181 | 5.0 | 17.0 | 0.00 | 0.00 | 0.00 | 42 | 1013.6 |
| 20260502203042 | 59 | 147 | 4.0 | 17.0 | 0.00 | 0.00 | 0.00 | 41 | 1013.6 |
| 20260502202520 | 58 | 170 | 7.0 | 17.0 | 0.00 | 0.00 | 0.00 | 39 | 1013.7 |
| 20260502202104 | 58 | 149 | 6.0 | 15.0 | 0.00 | 0.00 | 0.00 | 35 | 1013.5 |
| 20260502201554 | 58 | 116 | 3.0 | 18.0 | 0.00 | 0.00 | 0.00 | 31 | 1013.6 |
| 20260502201030 | 58 | 140 | 7.0 | 18.0 | 0.00 | 0.00 | 0.00 | 34 | 1013.7 |
| 20260502200509 | 57 | 124 | 2.0 | 15.0 | 0.00 | 0.00 | 0.00 | 30 | 1013.6 |
| 20260502200053 | 57 | 122 | 3.0 | 16.0 | 0.00 | 0.00 | 0.00 | 27 | 1013.6 |
| 20260502195531 | 57 | 112 | 4.0 | 16.0 | 0.00 | 0.00 | 0.00 | 28 | 1013.7 |
| 20260502195011 | 57 | 186 | 7.0 | 15.0 | 0.00 | 0.00 | 0.00 | 29 | 1013.6 |
| 20260502194554 | 57 | 53 | 4.0 | 15.0 | 0.00 | 0.00 | 0.00 | 28 | 1013.7 |
| 20260502194038 | 57 | 130 | 7.0 | 14.0 | 0.00 | 0.00 | 0.00 | 30 | 1013.8 |
| 20260502193513 | 58 | 163 | 5.0 | 11.0 | 0.00 | 0.00 | 0.00 | 31 | 1013.7 |
| 20260502193103 | 58 | 182 | 2.0 | 5.0 | 0.00 | 0.00 | 0.00 | 30 | 1013.7 |
| 20260502192535 | 58 | 343 | 2.0 | 12.0 | 0.00 | 0.00 | 0.00 | 27 | 1013.7 |
| 20260502192013 | 57 | 148 | 3.0 | 12.0 | 0.00 | 0.00 | 0.00 | 28 | 1013.7 |
| 20260502191601 | 57 | 210 | 2.0 | 15.0 | 0.00 | 0.00 | 0.00 | 32 | 1013.7 |
| 20260502191045 | 57 | 91 | 1.0 | 15.0 | 0.00 | 0.00 | 0.00 | 26 | 1013.7 |
| 20260502190524 | 56 | 112 | 5.0 | 17.0 | 0.00 | 0.00 | 0.00 | 26 | 1013.7 |
| 20260502190004 | 56 | 190 | 7.0 | 11.0 | 0.00 | 0.00 | 0.00 | 23 | 1013.7 |
| 20260502185546 | 56 | 101 | 4.0 | 18.0 | 0.00 | 0.00 | 0.00 | 26 | 1013.8 |
| 20260502185025 | 56 | 178 | 6.0 | 18.0 | 0.00 | 0.00 | 0.00 | 23 | 1013.9 |
| 20260502184513 | 56 | 221 | 6.0 | 13.0 | 0.00 | 0.00 | 0.00 | 22 | 1013.9 |
| 20260502184048 | 56 | 153 | 4.0 | 13.0 | 0.00 | 0.00 | 0.00 | 21 | 1013.8 |
| 20260502183527 | 56 | 150 | 3.0 | 9.0 | 0.00 | 0.00 | 0.00 | 21 | 1013.8 |
| 20260502183016 | 56 | 159 | 4.0 | 10.0 | 0.00 | 0.00 | 0.00 | 20 | 1013.8 |
| 20260502182550 | 56 | 105 | 4.0 | 10.0 | 0.00 | 0.00 | 0.00 | 20 | 1013.8 |
| 20260502182036 | 55 | 145 | 0.0 | 7.0 | 0.00 | 0.00 | 0.00 | 13 | 1013.8 |
| 20260502181519 | 55 | 105 | 2.0 | 7.0 | 0.00 | 0.00 | 0.00 | 11 | 1013.7 |
| 20260502181058 | 55 | 75 | 1.0 | 5.0 | 0.00 | 0.00 | 0.00 | 13 | 1013.8 |
| 20260502180542 | 55 | 228 | 0.0 | 5.0 | 0.00 | 0.00 | 0.00 | 11 | 1013.8 |